Location: Unspecified
(51.6250°N, 0.8230°E)
Time: 11:04:22
(UTC+01:00)

CZ-3 Stage 3 - Pass Details

Date: 12 August 2020
Orbit: 426 x 34763 km, 31.1° (Epoch: 22 September)

Event Time Altitude Azimuth Distance (km) Brightness Sun altitude
Rises 03:19:51 0° 177° (S) 10,079 7.7 -17.1°
Reaches altitude 10° 03:27:15 10° 168° (SSE) 11,144 8.0 -16.4°
Maximum altitude 09:47:07 65° 161° (SSE) 31,716 11.6 36.6°
Drops below altitude 10° 12:36:57 10° 132° (SE) 9,930 8.8 52.8°
Sets 12:41:44 0° 129° (SE) 9,571 8.5 52.9°
